sat.trackr.live / text

‹ back to catalog

GAOFEN-11 05

NORAD 60249 · 2024-130A

PAYLOAD ACTIVE UNKNOWN

§ Identity

Operator
Country
PRC
Launch date
2024-07-19
Launch site
TAISC
Launch vehicle
Mass (kg)
RCS (m²)

External: N2YO · Heavens-Above · Gunter

§ Orbital elements

Epoch: 2026-09-22T23:27:33.168672Z

Period
94.52 min
Inclination
97.3932°
Eccentricity
0.0002513
Mean motion
15.23559037 rev/d
Perigee alt
493.4 km
Apogee alt
496.8 km
Semi-major
6,873.3 km
B*
1.5535e-4
RAAN
342.9034°
Arg perigee
65.4356°
Mean anomaly
294.7143°
Rev number
10,035

§ Raw data

GAOFEN-11 051 60249U 24130A   26265.97746723  .00003643  00000+0  15535-3 0  99942 60249  97.3932 342.9034 0002513  65.4356 294.7143 15.23559037100350

JSON: /api/v1/satellites/60249 · /tle

For live sub-satellite position, see the globe view (requires WebGL).

§ Visibility from observer

Set your observer location to see the next 7 days of passes ≥ 10°. The values pass through the URL so the page stays shareable.

No JS? Fill the form by hand. The geolocation button needs JavaScript.